Regional Weather Roundup
Issued by NWS

Home | Current Version | Previous Version | Graphics & Text | Print | Product List | Glossary On
Versions: 1 2 3 4 5 6 7 8 9 10 11 12 13 14 15 16 17 18 19 20 21 22 23 24 25 26 27 28 29 30 31 32 33 34 35 36 37 38 39 40 41 42 43 44 45 46 47 48 49 50
000
ASUS44 KMEG 300600
RWRTN
TENNESSEE HOURLY STATE WEATHER ROUNDUP
NATIONAL WEATHER SERVICE MEMPHIS TN
100 AM CDT WED JUL 30 2014

TNZ002-004-019-021-049-052-054-088>092-300700-
WEST TENNESSEE

CITY           SKY/WX    TMP DP  RH WIND       PRES   REMARKS
MEMPHIS INTL   CLEAR     67  56  67 CALM      30.10F
NWS MEMPHIS      N/A     61 N/A N/A MISG        N/A
JACKSON        CLEAR     58  56  93 CALM      30.11S
DYERSBURG      CLEAR     59  50  72 CALM      30.12S
PARIS          CLEAR     54  50  87 CALM      30.12S
LEXINGTON      CLEAR     55  55 100 CALM      30.10S
SAVANNAH       CLEAR     55  55 100 CALM      30.11F
$$

TNZ008-025-027-028-033-062-065-066-300700-
NORTH MIDDLE TENNESSEE

CITY           SKY/WX    TMP DP  RH WIND       PRES   REMARKS
NASHVILLE      CLEAR     63  56  78 CALM      30.10S
CLARKSVILLE    CLEAR     60  55  83 CALM      30.10S
COOKEVILLE     CLEAR     55  55 100 CALM      30.11S
CROSSVILLE     CLEAR     55  52  89 CALM      30.13S
$$

TNZ061-075-076-078-094-096-097-300700-
SOUTH MIDDLE TENNESSEE

CITY           SKY/WX    TMP DP  RH WIND       PRES   REMARKS
FAYETTEVILLE   CLEAR     59  54  82 N9G21     30.10S
TULLAHOMA      CLEAR     55  54  94 CALM      30.11F
WINCHESTER     CLEAR     55  54  94 CALM      30.11S
MCMINNVILLE    CLEAR     57  57 100 CALM      30.11S
COLUMBIA       CLEAR     57  57 100 CALM      30.10R
SHELBYVILLE    CLEAR     59  57  94 CALM      30.11S
$$

TNZ017-018-042-046-047-300700-
NORTHEAST TENNESSEE

CITY           SKY/WX    TMP DP  RH WIND       PRES   REMARKS
TRI CITIES     PTCLDY    54  50  86 CALM      30.11S
ELIZABETHTON   CLEAR     52  50  93 CALM        N/A
$$

TNZ012-013-036-069-073-074-300700-
CENTRAL EAST TENNESSEE

CITY           SKY/WX    TMP DP  RH WIND       PRES   REMARKS
KNOXVILLE      CLEAR     61  54  77 CALM      30.09R
OAK RIDGE      CLEAR     58  55  90 CALM      30.12R
GATLINBURG     CLEAR     55  54  94 CALM      30.10R
$$

TNZ083-085-099-300700-
SOUTHEAST TENNESSEE

CITY           SKY/WX    TMP DP  RH WIND       PRES   REMARKS
CHATTANOOGA    CLEAR     64  55  72 CALM      30.09S
$$

SKY/WX REPORTED AS FAIR MEANS FEW OR NO CLOUDS BELOW
12 THOUSAND FEET.




USA.gov is the U.S. government's official web portal to all federal, state and local government web resources and services.